Regional Weather Roundup
Issued by NWS Boston, MA

Home | Current Version | Previous Version | Text Only | Print | Product List | Glossary On
Versions: 1 2 3 4 5 6 7 8 9 10 11 12 13 14 15 16 17 18 19 20 21 22 23 24 25 26 27
000
ASUS41 KBOX 260310
RWRBOX

REGIONAL WEATHER ROUNDUP
NATIONAL WEATHER SERVICE TAUNTON MA
1100 PM EDT MON SEP 25 2017

NOTE:  "FAIR" INDICATES FEW OR NO CLOUDS BELOW 12,000 FEET WITH NO
SIGNIFICANT WEATHER AND/OR OBSTRUCTIONS TO VISIBILITY.

MAZALL-260400-
EASTERN MASSACHUSETTS

CITY           SKY/WX    TMP DP  RH WIND       PRES   REMARKS
BOSTON         CLEAR     66  65  96 CALM      30.07S
BEVERLY        FOG       66  66 100 SE6       30.06S VSB 3/4
LAWRENCE       CLEAR     69  65  86 CALM      30.08S
BEDFORD        CLEAR     66  62  87 CALM      30.05S
BLUE HILL        N/A     67  65  93 SE6       30.07S
NORWOOD        PTCLDY    65  64  97 CALM      30.05F
MARSHFIELD     FOG       66  66 100 CALM      30.06S VSB<1/4
PLYMOUTH       FOG       67  65  93 CALM      30.06F VSB 1/4
TAUNTON        CLOUDY    68  66  93 CALM      30.05F FOG
NEW BEDFORD    FOG       67  66  97 SE3       30.05S VSB 1/4
$$

MAZALL-260400-
CAPE COD AND THE ISLANDS

CITY           SKY/WX    TMP DP  RH WIND       PRES   REMARKS
FALMOUTH       FOG       64  64 100 CALM      30.07F VSB<1/4
HYANNIS        FOG       65  65 100 CALM      30.05S VSB 1/4
CHATHAM        FOG       64  64 100 CALM      30.06F VSB 1
PROVINCETOWN   PTCLDY    61  61 100 CALM      30.07S
NANTUCKET      LGT RAIN  66  66 100 E7        30.05S FOG
MARTHAS VNYRD  FOG       64  63  96 N3        30.05F VSB 1/2
$$

MAZALL-260400-
CENTRAL AND WESTERN MASSACHUSETTS

CITY           SKY/WX    TMP DP  RH WIND       PRES   REMARKS
WORCESTER      CLEAR     71  62  73 SE3       30.09S
FITCHBURG      CLEAR     69  64  84 CALM      30.08S
ORANGE         CLEAR     66  66 100 CALM      30.07S FOG
SPRINGFIELD    PTCLDY    71  65  81 S6        30.05R
WESTFIELD      CLEAR     71  66  84 S5        30.05S
NORTH ADAMS    CLEAR     66  65  96 CALM      30.06F FOG
PITTSFIELD     CLEAR     68  64  87 CALM      30.08S
$$

RIZALL-260400-
RHODE ISLAND

CITY           SKY/WX    TMP DP  RH WIND       PRES   REMARKS
PROVIDENCE     DRIZZLE   69  69 100 E3        30.06S FOG
NEWPORT        FOG       67  67 100 NE3       30.05F VSB 1/4
BLOCK ISLAND   FOG       64  64 100 CALM      30.06F VSB 1/2
SMITHFIELD     CLOUDY    66  66 100 CALM      30.07F
WESTERLY       FOG       68  67  96 CALM      30.06S VSB 3/4
$$

CTZALL-260400-
CONNECTICUT

CITY           SKY/WX    TMP DP  RH WIND       PRES   REMARKS
BRADLEY INTL   PTCLDY    72  63  73 S5        30.06R
HARTFORD       PTCLDY    70  64  81 S5        30.05F
BRIDGEPORT     CLEAR     71  65  81 CALM      30.05F
DANBURY        CLEAR     69  65  86 CALM      30.07F
GROTON         CLOUDY    68  66  93 CALM      30.05S
NEW HAVEN      CLOUDY    69  65  86 NE3       30.06F
CHESTER        FOG       68  66  94 CALM      30.07S VSB 3/4
MERIDEN        CLEAR     65  61  87 CALM      30.06S
WILLIMANTIC    CLOUDY    69  67  93 CALM      30.06S
OXFORD         MOCLDY    67  64  90 CALM      30.08F
$$

MEZ002-015-021-024-NHZ003-005-008-011-012-014-VTZ005-008-260400-
NORTHERN NEW ENGLAND

CITY           SKY/WX    TMP DP  RH WIND       PRES   REMARKS
PORTLAND ME    CLEAR     66  60  81 SW3       30.06F
BANGOR ME      CLEAR     67  63  87 S6        30.03F
CONCORD NH     CLEAR     69  66  90 CALM      30.06F
MANCHESTER NH  CLEAR     71  64  78 SE7       30.05S
NASHUA NH      CLEAR     68  64  87 CALM      30.07S
PORTSMOUTH NH  CLEAR     64  63  95 CALM      30.05S
JAFFREY NH     CLEAR     66  66 100 CALM      30.09F
KEENE NH       FOG       67  66  97 CALM      30.07S VSB 3/4
BURLINGTON VT  CLEAR     72  69  90 CALM      30.02F
MT. WASHINGTON PTCLDY    59  48  67 N3          N/A
$$

NYZ052-076-260400-
EASTERN NEW YORK

CITY           SKY/WX    TMP DP  RH WIND       PRES   REMARKS
ALBANY         PTCLDY    73  67  81 CALM      30.03S
NEW YORK CITY  PTCLDY    72  65  78 E5        30.03F
$$

ANZALL-260400-
MARINE OBSERVATIONS

STATION/POSITION TIME  TEMP    WIND        PRES    VSBY  WAVE
                       AIR SEA DIR/SP/G                  HT/PER
                 (UTC) (F)     (DEG/KT/KT) (MB)    (MI)  (FT/S)
BOSTON BUOY      0250   63 63  120/  4/  4 1017.9F         2/11
BUZZARDS BAY     0200   65      50/  1/  2 1018.2F
NANTUCKET SOUND  0250   61 62   50/  2/  4 1017.7S         1/16
MASS BAY-STELLWA 0204   63 64  150/  8/ 10 1017.6R         2/ 8
ISLE OF SHOALS   0200   65     220/  6/  7 1017.8F
S OF BLOCK IS    NOT AVBL
$$

......................KEY.........................
  SKY/WX - SKY CONDITION/PRESENT WEATHER
  TMP    - TEMPERATURE IN FAHRENHEIT
  DWPT   - DEWPOINT IN FAHRENHEIT
  RH     - RELATIVE HUMIDITY IN PERCENT
  WIND   - DIRECTION AND SPEED IN MPH
  PRES   - MEAN SEA LEVEL PRESSURE IN INCHES OF HG
  WCI    - WIND CHILL INDEX
  VSB    - VISIBILITY IN MILES
  HX     - HEAT INDEX
  TC     - TEMPERATURE IN CELSIUS
  VRB    - VARIABLE WIND DIRECTION
  N/A    - NOT AVAILABLE




USA.gov is the U.S. government's official web portal to all federal, state and local government web resources and services.